HJ3GNC-16 Weather Reports


time (UTC)temp
F
wind
direction
speed
knots
gust
knots
rain 1hr
in
rain 24hr
in
rain mn
in
humidity
%
barometer
mb
20260507101627 73 0 0.0 0.0 0.00 0.00 0.00 88 1013.0
20260507100046 73 100 0.0 0.0 0.00 0.00 0.00 88 1013.0
20260507094506 73 100 0.0 0.0 0.00 0.00 0.00 88 1013.0
20260507092922 73 100 0.0 0.0 0.00 0.00 0.00 88 1013.0
20260507091338 73 100 0.0 0.0 0.00 0.00 0.00 88 1013.0
20260507085753 73 360 0.0 0.0 0.00 0.00 0.00 88 1013.0
20260507084209 73 360 0.0 0.0 0.00 0.00 0.00 88 1013.0
20260507082627 73 360 0.0 0.0 0.00 0.00 0.00 88 1013.0
20260507081041 73 360 0.0 0.0 0.00 0.00 0.00 88 1013.0
20260507075456 73 70 0.0 0.0 0.00 0.00 0.00 88 1013.0
20260507073915 73 70 0.0 0.0 0.00 0.00 0.00 88 1013.0
20260507072327 73 70 0.0 0.0 0.00 0.00 0.00 88 1013.0
20260507070745 73 70 0.0 0.0 0.00 0.00 0.00 88 1013.0
20260507065154 73 0 0.0 0.0 0.00 0.00 0.00 88 1013.0
20260507063610 77 0 0.0 0.0 0.00 0.00 0.00 73 1013.0
20260507062026 77 0 0.0 0.0 0.00 0.00 0.00 73 1013.0
20260507060444 77 170 0.0 0.0 0.00 0.00 0.00 73 1013.0
20260507054901 77 170 0.0 0.0 0.00 0.00 0.00 73 1013.0
20260507053321 77 170 0.0 0.0 0.00 0.00 0.00 73 1013.0
20260507051739 77 170 0.0 0.0 0.00 0.00 0.00 73 1014.0
20260507050147 77 168 0.0 0.0 0.00 0.00 0.00 73 1014.0
20260507044601 77 168 0.0 0.0 0.00 0.00 0.00 73 1014.0
20260507043013 77 168 0.0 0.0 0.00 0.00 0.00 73 1014.0
20260507041429 77 166 0.0 0.0 0.00 0.00 0.00 73 1014.0
20260507035841 77 0 0.0 0.0 0.00 0.00 0.00 73 1014.0
20260507034254 77 0 0.0 0.0 0.00 0.00 0.00 73 1014.0
20260507032710 77 0 0.0 0.0 0.00 0.00 0.00 73 1014.0
20260507031125 77 0 0.0 0.0 0.00 0.00 0.00 73 1014.0
20260507025532 77 270 0.0 0.0 0.00 0.00 0.00 73 1014.0
20260507023939 77 270 0.0 0.0 0.00 0.00 0.00 73 1014.0
20260507022354 77 270 0.0 0.0 0.00 0.00 0.00 73 1013.0
20260507020811 77 270 0.0 0.0 0.00 0.00 0.00 73 1013.0
20260507015221 77 170 0.0 0.0 0.00 0.00 0.00 73 1013.0
20260507013637 77 170 0.0 0.0 0.00 0.00 0.00 73 1013.0
20260507012052 77 170 0.0 0.0 0.00 0.00 0.00 73 1012.0
20260507010507 77 170 0.0 0.0 0.00 0.00 0.00 73 1012.0
20260507004918 77 220 0.0 0.0 0.00 0.00 0.00 73 1012.0
20260507003332 82 220 0.0 0.0 0.00 0.00 0.00 65 1012.0
20260507001750 82 220 0.0 0.0 0.00 0.00 0.00 65 1011.0
20260507000206 82 190 0.0 0.0 0.00 0.00 0.00 65 1011.0
20260506234618 82 190 0.0 0.0 0.00 0.00 0.00 65 1011.0
20260506233029 82 190 0.0 0.0 0.00 0.00 0.00 65 1011.0
20260506231443 82 190 0.0 0.0 0.00 0.00 0.00 65 1010.0
20260506225844 82 190 0.0 0.0 0.00 0.00 0.00 65 1010.0
20260506224253 82 190 0.0 0.0 0.00 0.00 0.00 65 1010.0
20260506222704 82 190 0.0 0.0 0.00 0.00 0.00 65 1010.0
20260506221109 82 190 0.0 0.0 0.00 0.00 0.00 65 1010.0
20260506215526 82 200 0.0 0.0 0.00 0.00 0.00 65 1010.0
20260506212242 82 200 0.0 0.0 0.00 0.00 0.00 65 1011.0
20260506210615 82 200 0.0 0.0 0.00 0.00 0.00 65 1010.0
20260506205032 82 190 0.0 0.0 0.00 0.00 0.00 65 1010.0
20260506203443 82 190 0.0 0.0 0.00 0.00 0.00 65 1010.0
20260506201856 82 190 0.0 0.0 0.00 0.00 0.00 65 1011.0
20260506200302 79 200 0.0 0.0 0.00 0.00 0.00 78 1010.0
20260506194711 79 200 0.0 0.0 0.00 0.00 0.00 78 1010.0
20260506193127 79 200 0.0 0.0 0.00 0.00 0.00 78 1011.0
20260506191541 79 200 0.0 0.0 0.00 0.00 0.00 78 1010.0
20260506185935 79 190 0.0 0.0 0.00 0.00 0.00 73 1010.0
20260506184346 79 190 0.0 0.0 0.00 0.00 0.00 73 1011.0
20260506182800 79 190 0.0 0.0 0.00 0.00 0.00 73 1013.0
20260506181217 79 190 0.0 0.0 0.00 0.00 0.00 73 1011.0
20260506175604 77 200 0.0 0.0 0.00 0.00 0.00 83 1011.0
20260506174015 77 200 0.0 0.0 0.00 0.00 0.00 83 1012.0
20260506172427 77 200 0.0 0.0 0.00 0.00 0.00 83 1014.0
20260506170845 77 200 0.0 0.0 0.00 0.00 0.00 83 1013.0
20260506165300 77 190 0.0 0.0 0.00 0.00 0.00 83 1013.0
20260506163714 77 190 0.0 0.0 0.00 0.00 0.00 83 1014.0
20260506162101 77 190 0.0 0.0 0.00 0.00 0.00 83 1016.0
20260506160514 77 190 0.0 0.0 0.00 0.00 0.00 83 1015.0
20260506154922 75 200 0.0 0.0 0.00 0.00 0.00 88 1015.0
20260506153331 75 200 0.0 0.0 0.00 0.00 0.00 88 1015.0
20260506151729 75 200 0.0 0.0 0.00 0.00 0.00 88 1016.0
20260506150050 75 200 0.0 0.0 0.00 0.00 0.00 88 1015.0
20260506144459 75 200 0.0 0.0 0.00 0.00 0.00 88 1015.0
20260506142912 75 200 0.0 0.0 0.00 0.00 0.00 88 1016.0
20260506141320 75 200 0.0 0.0 0.00 0.00 0.00 88 1015.0
20260506134146 75 0 0.0 0.0 0.00 0.00 0.00 88 1015.0
20260506132600 75 0 0.0 0.0 0.00 0.00 0.00 88 1015.0
20260506131013 75 0 0.0 0.0 0.00 0.00 0.00 88 1014.0
20260506125428 75 0 0.0 0.0 0.00 0.00 0.00 88 1014.0
20260506123840 75 0 0.0 0.0 0.00 0.00 0.00 88 1014.0
20260506122247 75 0 0.0 0.0 0.00 0.00 0.00 88 1014.0
20260506120701 75 0 0.0 0.0 0.00 0.00 0.00 88 1014.0
20260506115112 75 260 0.0 0.0 0.00 0.00 0.00 88 1014.0
20260506113526 75 260 0.0 0.0 0.00 0.00 0.00 88 1014.0
20260506111942 75 260 0.0 0.0 0.00 0.00 0.00 88 1013.0
20260506110401 75 200 0.0 0.0 0.00 0.00 0.00 88 1013.0
20260506104818 75 200 0.0 0.0 0.00 0.00 0.00 88 1013.0
20260506103232 75 200 0.0 0.0 0.00 0.00 0.00 88 1013.0